{"data":{"norad_id":68318,"epoch":"2026-05-24T21:53:34.498176Z","epoch_age_seconds":86646,"freshness":"FRESH","line1":"1 68318U 26057AA  26144.91220484  .00135953  00000+0  89630-3 0  9997","line2":"2 68318  97.2852 271.1380 0001570  61.7223 298.4200 15.75231575 10284","mean_motion":15.75231575,"eccentricity":0.000157,"inclination_deg":97.2852,"raan_deg":271.138,"arg_perigee_deg":61.7223,"mean_anomaly_deg":298.42,"bstar":0.0008963,"rev_number":1028,"period_min":91.41513050232,"perigee_km":342.91691741966,"apogee_km":345.02765973627,"semimajor_km":6722.109288578,"source":"CELESTRAK","updated_at":"2026-05-25T13:38:21.920883Z"}}